Temperature
18 18 18 17 17 17 17 17 16 16 16 16 16 15 15 15 15 15 15 14 14 14 14 14 14 14 14 14 14 14 13 13 13 13 13 13 13 13 13 13 13 13 13
18 17 17 17 17 17 17 17 16 16 16 16 16 15 15 15 15 15 15 14 14 14 14 14 14 14 13 13 13 13 13 13 13 13 13 13 13 13 13 13 13 13 13
18 18 18 17 17 17 17 17 16 16 16 16 16 15 15 15 15 15 15 14 14 14 14 14 14 13 13 13 13 13 13 13 13 13 13 13 13 13 13 13 13 13 13
18 18 18 17 17 17 17 17 16 16 16 16 15 15 15 15 15 15 14 14 14 14 14 14 13 13 13 13 13 13 13 13 13 13 13 12 12 12 12 12 12 13 13
17 18 18 18 18 17 17 17 16 16 16 16 15 15 15 15 15 15 14 14 14 14 14 13 13 13 13 13 13 13 12 12 12 12 12 12 12 12 12 12 12 12 12
17 17 17 17 17 17 17 16 16 16 16 16 15 15 15 15 15 15 14 14 14 14 14 13 13 13 13 13 13 13 12 12 12 12 12 12 12 12 12 12 12 12 12
17 17 17 17 17 17 16 16 16 16 16 16 15 15 15 15 14 14 14 14 14 14 14 13 13 13 13 13 12 12 12 12 12 12 12 12 12 12 12 12 12 12 12
17 17 17 17 17 17 16 16 16 16 15 15 15 15 15 15 14 14 14 14 14 13 13 13 13 13 13 12 12 12 12 12 12 12 12 12 12 12 12 12 12 11 11
16 17 17 17 17 16 16 16 16 15 15 15 15 14 14 14 14 14 14 14 13 13 13 13 13 13 12 12 12 12 12 12 12 12 12 12 12 12 12 11 11 11 11
16 16 16 16 16 16 16 16 15 15 15 15 14 14 14 14 14 14 14 13 13 13 13 13 13 12 12 12 12 12 12 12 12 12 12 12 12 12 11 11 11 11 11
16 16 16 16 16 16 16 15 15 15 15 14 14 14 14 14 14 13 13 13 13 13 13 12 12 12 12 12 12 12 12 12 12 12 11 11 11 11 11 11 11 11 11
16 16 16 16 16 16 15 15 15 15 14 14 14 14 14 13 13 13 13 13 13 12 12 12 12 12 12 12 12 11 11 11 11 11 11 11 11 11 11 11 11 11 11
15 15 15 15 15 15 15 15 14 14 14 14 14 13 13 13 13 13 13 12 12 12 12 12 12 11 11 11 11 11 11 11 11 11 11 11 11 11 11 11 11 11 10
15 15 15 15 15 15 14 14 14 14 14 13 13 13 13 13 13 12 12 12 12 12 11 11 11 11 11 11 11 11 11 11 11 11 11 11 11 11 10 10 10 10 10
15 15 15 14 14 14 14 14 14 14 13 13 13 13 12 12 12 12 12 12 11 11 11 11 11 11 11 10 10 10 10 10 10 10 10 10 10 10 10 10 10 10 10
15 14 14 14 14 14 14 14 13 13 13 13 12 12 12 12 12 11 11 11 11 11 11 10 10 10 10 10 10 10 10 10 10 10 10 10 10 10 10 10 10 10 9
14 14 14 14 14 14 13 13 13 13 12 12 12 12 12 11 11 11 11 11 11 10 10 10 10 10 10 10 9 9 9 9 9 9 10 9 9 9 9 9 9 9 9
14 14 14 14 14 13 13 13 13 12 12 12 12 12 11 11 11 11 11 10 10 10 10 10 10 10 9 9 9 9 9 9 9 9 9 9 9 9 9 9 9 9 9
14 14 14 14 13 13 13 12 12 12 12 11 11 11 11 11 11 10 10 10 10 10 9 9 9 9 9 9 9 8 8 8 8 8 8 8 8 8 8 8 8 8 8
14 14 13 13 13 13 12 12 12 11 11 11 11 11 11 10 10 10 10 10 10 9 9 9 9 9 9 9 8 8 8 8 8 8 8 8 8 8 8 8 8 8 8
14 13 13 13 13 12 12 12 11 11 11 11 10 10 10 10 10 10 9 9 9 9 9 9 9 9 8 8 8 8 8 8 8 8 8 7 7 7 7 7 7 7 7
13 13 13 12 12 12 11 11 11 11 10 10 10 10 10 10 9 9 9 9 9 9 9 8 8 8 8 8 8 8 7 7 7 7 7 7 7 7 7 7 7 7 7
13 12 12 12 11 11 11 11 11 10 10 10 10 9 9 9 9 9 8 8 8 8 8 8 8 8 8 7 7 7 7 7 7 7 7 6 6 6 6 6 6 6 6
12 12 12 11 11 11 10 10 10 10 10 9 9 9 9 9 8 8 8 8 8 8 7 7 7 7 7 7 7 7 6 6 6 6 6 6 6 6 6 6 6 6 6
12 11 11 11 11 10 10 10 10 9 9 9 9 8 8 8 8 8 7 7 7 7 7 7 7 6 7 7 6 6 6 6 6 6 6 6 5 5 5 5 5 5 5
11 11 11 11 10 10 10 10 9 9 9 9 8 8 8 8 8 7 7 7 7 7 6 6 6 6 6 6 6 6 6 6 5 5 5 5 5 5 5 5 5 5 4
Wind_Speed
5 3 4 4 4 4 4 5 4 4 4 2 2 2 1 0 0 0 1 1 2 2 3 2 2 2 2 2 2 2 3 2 2 2 3 3 3 3 3 3 3 4 5
3 3 4 4 5 5 5 5 5 5 4 3 2 2 1 1 1 0 1 1 1 2 2 3 2 2 2 2 2 2 2 1 2 2 2 3 4 3 3 3 3 3 4
7 6 6 6 5 5 6 6 5 5 4 4 3 2 2 2 1 1 0 1 1 2 2 2 2 2 2 2 1 1 2 1 2 1 2 2 2 3 3 3 3 3 3
5 5 6 6 6 7 6 6 6 5 4 5 4 4 3 2 2 1 1 1 0 1 2 2 2 2 1 1 1 1 1 2 0 1 1 1 2 1 2 3 3 3 2
5 5 6 6 6 6 6 6 5 5 5 5 5 4 2 1 1 0 0 1 1 0 1 2 2 2 1 1 1 1 1 1 2 1 1 1 1 1 2 2 4 3 2
3 3 2 3 3 4 4 4 5 4 5 5 5 5 4 3 2 1 1 1 1 1 1 1 2 2 1 1 1 1 2 1 1 2 2 2 2 2 2 2 2 3 3
2 2 2 3 3 3 4 4 5 4 4 5 5 5 5 5 4 3 3 1 1 1 2 1 1 1 2 2 2 1 1 2 2 2 2 2 2 2 3 2 2 2 3
1 2 2 3 4 4 4 4 5 4 4 5 4 4 4 3 3 3 3 3 2 2 2 1 1 1 2 2 1 1 1 1 2 2 2 2 2 2 3 3 3 1 2
1 2 1 2 3 4 4 5 5 4 4 5 4 3 3 3 3 2 2 2 2 2 1 1 1 1 1 1 1 1 1 1 2 2 2 2 2 2 2 3 3 3 2
1 0 1 1 2 3 3 4 5 5 4 4 4 4 3 3 3 2 2 2 1 1 1 1 1 0 0 1 1 1 1 1 2 1 1 2 2 2 2 2 2 3 4
3 2 1 1 1 1 2 3 3 3 3 3 3 3 3 3 3 2 2 2 1 1 1 1 1 1 1 1 1 1 1 2 2 1 2 3 2 2 2 2 2 2 3
2 1 1 0 1 1 1 2 2 3 3 3 3 3 3 3 3 3 2 2 2 1 1 1 1 1 1 1 1 2 2 2 2 2 2 3 2 2 2 2 2 2 3
1 0 0 1 1 1 1 1 2 2 2 3 3 3 3 3 4 3 3 2 2 2 1 1 1 2 2 2 2 2 2 2 3 3 3 3 2 3 2 2 3 2 2
2 1 1 2 1 1 1 1 1 2 2 3 3 3 3 4 4 4 3 3 3 2 2 2 2 2 2 2 1 1 2 2 2 3 3 3 3 4 3 3 3 3 2
2 3 2 2 2 1 1 1 1 2 2 3 2 3 3 3 3 3 3 3 2 2 2 2 2 2 1 2 1 2 2 2 2 2 2 2 2 3 3 2 2 3 2
4 3 2 2 2 3 2 2 2 2 2 3 3 2 2 2 2 3 3 2 2 2 1 2 2 2 2 3 3 2 1 1 1 2 3 3 2 3 3 3 3 3 3
5 4 3 4 4 4 3 3 3 2 2 2 3 2 2 2 2 2 2 3 3 3 2 2 2 2 4 3 2 2 1 1 2 2 2 3 3 3 2 3 3 3 3
4 4 3 3 3 3 3 2 2 2 2 2 3 3 3 2 2 2 2 3 3 3 3 3 3 3 4 3 3 3 1 1 2 3 3 3 3 3 2 1 2 3 3
4 4 3 3 2 2 2 3 2 2 2 2 3 4 4 3 3 3 3 3 3 3 3 3 3 3 4 4 3 2 1 2 3 4 3 3 3 5 4 2 2 3 4
3 3 2 1 2 2 2 3 3 3 3 4 4 3 3 3 3 4 3 2 2 3 2 2 2 3 3 4 3 2 1 2 3 3 3 4 5 6 4 3 3 4 5
2 2 3 2 2 2 3 3 3 4 5 3 2 2 2 3 3 2 2 1 2 1 1 2 2 2 3 4 4 2 1 2 3 3 3 4 6 6 6 4 4 6 5
2 2 2 1 1 2 3 3 4 4 3 2 2 2 2 2 2 1 1 1 1 2 1 1 2 2 3 3 4 4 3 3 3 3 4 4 6 6 5 4 5 5 3
2 2 3 2 1 2 3 4 4 3 2 2 2 2 2 2 2 2 2 1 1 2 2 2 2 3 3 3 4 4 4 4 3 4 5 5 6 5 4 4 5 3 1
2 2 3 2 2 3 3 4 3 2 3 3 3 2 2 2 1 1 2 2 2 2 2 3 3 3 3 3 3 3 3 3 3 3 4 5 5 3 3 4 3 2 2
3 3 4 4 4 3 3 3 3 3 3 3 3 2 2 2 2 2 3 3 4 5 4 4 4 3 4 5 4 3 3 3 3 2 1 2 2 2 2 2 2 1 1
3 3 3 3 3 3 3 3 3 4 4 3 3 3 2 2 2 2 2 4 4 5 6 6 4 4 5 5 5 5 5 4 2 1 1 3 3 3 3 3 3 2 2
Wind_Direction
224 199 187 175 157 155 158 168 163 163 150 134 134 126 171 242 355 11 111 119 118 124 119 108 99 95 96 96 88 83 65 43 25 52 19 2 10 23 24 21 27 23 24
210 203 198 188 180 178 180 179 182 176 173 169 154 147 149 173 210 291 57 123 152 145 142 129 135 123 107 88 81 89 90 43 38 93 68 5 349 351 3 10 22 11 11
209 208 205 203 197 194 192 191 191 181 173 156 123 91 67 50 44 9 303 308 195 157 139 141 137 140 135 149 152 128 124 114 16 61 131 133 248 313 332 348 4 2 4
215 212 208 208 207 205 193 187 185 179 170 157 153 153 159 179 210 219 234 283 268 162 158 155 153 158 155 170 202 140 143 140 150 31 60 159 172 161 321 325 337 346 352
210 209 209 210 208 195 185 184 176 175 174 169 170 165 163 181 179 156 166 261 280 249 179 173 158 164 172 196 183 134 137 152 169 178 161 114 80 135 174 292 319 331 326
207 206 208 194 193 177 174 173 171 181 178 173 173 174 173 168 158 179 189 250 274 275 271 184 162 169 176 199 201 174 164 175 168 176 171 170 168 186 174 214 276 299 302
167 172 178 185 185 171 175 175 175 183 179 174 177 184 186 182 185 192 194 207 235 247 255 221 187 191 197 186 170 165 191 190 180 183 196 197 202 181 169 175 224 283 303
157 176 196 194 187 181 176 171 179 183 178 180 186 190 186 184 193 194 193 203 219 228 233 218 205 214 202 182 157 158 206 187 199 206 198 200 216 195 180 175 170 274 319
190 196 199 185 183 183 184 180 177 181 183 184 178 182 184 187 188 184 180 196 217 219 209 197 195 207 185 164 145 187 235 200 209 215 210 214 224 209 202 188 181 174 233
213 214 212 194 182 189 182 171 172 180 184 179 179 180 183 184 175 155 160 186 204 190 158 158 163 137 113 148 144 204 242 213 233 217 204 231 238 215 198 194 195 190 193
210 220 230 215 154 128 137 154 164 165 166 174 176 170 175 171 159 167 188 194 186 169 176 195 187 184 213 213 178 217 216 219 250 246 215 239 232 216 212 196 192 198 183
210 222 213 87 111 109 110 161 167 167 173 171 168 174 172 165 168 188 205 199 190 193 199 193 189 209 213 215 213 231 228 218 237 246 232 255 244 232 220 205 206 210 200
177 151 160 190 210 184 148 157 177 182 172 157 162 166 173 178 192 204 205 198 200 206 203 188 212 230 227 229 238 228 229 228 235 235 231 245 219 236 234 221 220 227 222
196 196 218 232 236 213 170 163 171 177 165 157 164 182 197 201 207 205 200 201 200 203 212 213 227 232 224 224 237 232 241 247 253 250 243 240 223 231 235 233 229 219 206
217 220 221 228 228 214 188 168 172 166 169 163 177 209 213 206 205 204 208 208 203 212 217 219 246 251 228 233 236 227 243 248 269 290 283 266 253 250 240 247 238 217 209
226 231 227 221 222 221 218 198 198 196 174 176 196 211 203 205 214 216 208 202 208 215 204 226 234 252 266 275 261 240 218 233 257 289 303 301 292 288 285 284 270 226 216
226 221 220 222 226 224 211 208 213 187 171 197 210 203 195 209 224 218 201 209 214 205 210 226 226 245 264 273 272 261 217 216 241 263 291 305 305 302 290 291 294 282 262
223 224 220 222 223 211 203 193 176 168 179 202 221 218 202 208 216 212 213 217 213 211 217 226 234 246 271 271 262 264 248 247 255 256 253 266 287 287 282 286 296 281 278
214 214 213 210 201 202 187 160 165 174 188 217 230 230 213 205 203 218 227 223 210 214 219 230 236 244 273 283 270 267 232 250 260 261 260 257 264 279 278 273 275 292 294
202 200 190 165 170 205 161 154 179 187 214 227 233 234 218 206 207 216 222 218 209 214 215 235 245 244 261 287 285 263 198 241 268 278 272 267 269 276 267 250 250 270 279
192 165 155 173 206 186 152 170 194 215 227 223 216 214 213 210 206 208 210 208 201 201 211 236 260 262 274 290 290 274 220 230 252 268 277 274 279 277 270 263 249 256 264
165 159 158 193 220 178 159 188 228 234 217 191 192 203 207 203 181 168 197 195 179 185 222 248 280 280 282 289 285 279 269 264 245 258 265 269 277 280 281 277 270 271 280
188 174 168 180 232 208 175 199 235 223 191 181 199 204 191 190 174 175 188 200 195 200 225 233 259 282 288 291 296 287 280 280 270 267 273 278 286 293 286 277 272 269 234
193 177 165 181 231 239 220 212 216 197 179 195 210 201 189 198 196 199 201 206 218 222 234 240 254 269 278 278 283 287 288 288 285 286 283 290 297 295 285 292 286 253 228
193 184 186 201 222 227 232 221 195 174 178 200 214 212 206 206 220 228 225 223 231 226 227 233 233 241 262 268 276 273 269 263 259 286 304 311 314 303 296 297 286 270 264
189 190 198 206 220 218 225 230 203 180 180 199 208 211 210 216 221 229 267 259 248 255 241 237 239 248 259 284 286 282 285 288 295 333 281 272 267 265 267 271 281 274 254
Height
1524 1525 1527 1528 1530 1531 1532 1533 1534 1535 1536 1536 1536 1537 1537 1538 1538 1538 1538 1539 1539 1539 1539 1539 1539 1540 1539 1539 1539 1539 1539 1538 1538 1538 1537 1537 1537 1536 1535 1535 1534 1534 1533
1522 1524 1525 1527 1528 1529 1531 1532 1533 1533 1534 1535 1536 1536 1537 1537 1538 1538 1538 1538 1538 1538 1539 1539 1539 1539 1539 1539 1539 1539 1538 1538 1538 1538 1537 1537 1538 1536 1536 1535 1534 1534 1533
1520 1521 1523 1524 1526 1527 1529 1530 1531 1532 1533 1534 1535 1536 1536 1537 1537 1537 1537 1537 1538 1538 1538 1538 1538 1538 1538 1538 1538 1538 1538 1538 1538 1538 1538 1537 1536 1536 1536 1535 1534 1534 1533
1518 1519 1521 1522 1524 1525 1527 1528 1529 1531 1532 1533 1534 1534 1535 1535 1535 1536 1536 1537 1537 1537 1537 1537 1537 1537 1537 1537 1538 1538 1538 1537 1537 1537 1537 1537 1537 1536 1535 1535 1534 1533 1533
1516 1517 1518 1520 1522 1523 1525 1526 1527 1529 1530 1531 1532 1533 1534 1534 1535 1535 1535 1536 1536 1536 1536 1535 1535 1536 1536 1536 1536 1536 1536 1536 1536 1536 1536 1536 1536 1535 1535 1534 1533 1533 1532
1514 1515 1516 1518 1519 1521 1523 1524 1525 1527 1528 1529 1530 1531 1532 1533 1534 1534 1534 1534 1534 1534 1534 1534 1534 1534 1534 1534 1535 1535 1535 1535 1535 1535 1534 1534 1534 1534 1533 1533 1532 1531 1531
1512 1513 1514 1516 1517 1519 1520 1522 1523 1524 1526 1527 1528 1529 1530 1531 1532 1532 1532 1533 1533 1533 1532 1533 1532 1532 1532 1533 1533 1533 1533 1533 1533 1533 1533 1533 1532 1532 1532 1531 1530 1530 1529
1511 1512 1513 1514 1515 1517 1518 1520 1521 1522 1524 1525 1526 1528 1529 1530 1530 1531 1531 1531 1531 1531 1531 1531 1531 1531 1531 1531 1531 1531 1531 1531 1531 1531 1531 1530 1530 1530 1530 1530 1529 1528 1527
1511 1512 1513 1513 1514 1515 1517 1518 1519 1520 1522 1523 1524 1526 1527 1528 1528 1529 1529 1529 1529 1529 1530 1530 1530 1529 1529 1529 1529 1529 1529 1529 1529 1529 1528 1528 1528 1528 1528 1528 1528 1528 1526
1511 1512 1513 1513 1513 1515 1516 1517 1518 1519 1520 1521 1522 1524 1524 1525 1526 1527 1527 1527 1528 1528 1528 1527 1527 1527 1527 1527 1527 1527 1527 1526 1526 1526 1526 1526 1525 1525 1525 1525 1525 1524 1524
1510 1511 1512 1513 1513 1514 1514 1515 1516 1517 1518 1519 1520 1521 1522 1523 1524 1524 1525 1525 1525 1526 1526 1525 1525 1525 1525 1525 1525 1524 1524 1524 1524 1523 1523 1523 1523 1523 1522 1522 1522 1521 1521
1510 1510 1511 1512 1512 1512 1513 1514 1514 1515 1516 1517 1518 1519 1520 1520 1521 1522 1522 1523 1523 1523 1523 1523 1523 1523 1522 1522 1522 1521 1521 1521 1521 1521 1520 1520 1520 1520 1519 1519 1519 1518 1518
1509 1509 1510 1510 1510 1511 1511 1512 1512 1513 1514 1515 1516 1516 1517 1518 1519 1519 1520 1520 1520 1520 1520 1520 1520 1520 1520 1520 1519 1519 1519 1519 1518 1518 1518 1517 1517 1516 1516 1516 1515 1515 1515
1507 1508 1508 1509 1509 1509 1510 1510 1511 1511 1512 1513 1513 1514 1515 1516 1516 1517 1517 1517 1517 1517 1517 1518 1518 1517 1517 1517 1516 1516 1516 1516 1515 1515 1515 1514 1514 1513 1513 1513 1512 1512 1511
1506 1506 1507 1507 1508 1508 1508 1508 1509 1509 1510 1510 1511 1512 1513 1513 1514 1514 1514 1514 1514 1514 1515 1515 1515 1515 1514 1514 1514 1513 1513 1513 1512 1512 1512 1511 1511 1510 1510 1509 1509 1508 1508
1503 1504 1505 1505 1506 1506 1506 1506 1507 1507 1508 1508 1509 1509 1510 1510 1511 1511 1511 1511 1511 1511 1511 1511 1511 1511 1511 1511 1511 1510 1510 1509 1509 1509 1508 1508 1507 1507 1506 1506 1505 1505 1504
1501 1502 1503 1503 1504 1504 1504 1504 1505 1505 1506 1506 1506 1507 1507 1507 1507 1508 1508 1508 1508 1508 1508 1508 1508 1508 1508 1508 1508 1507 1507 1506 1506 1505 1505 1504 1504 1503 1503 1502 1501 1501 1500
1499 1500 1501 1501 1502 1502 1502 1502 1503 1503 1503 1504 1504 1504 1504 1504 1504 1505 1505 1505 1505 1505 1505 1505 1505 1505 1505 1505 1504 1504 1503 1502 1502 1501 1501 1501 1500 1499 1499 1497 1497 1496 1496
1497 1498 1499 1500 1500 1500 1500 1500 1500 1501 1501 1501 1501 1501 1501 1501 1501 1501 1501 1501 1502 1502 1502 1502 1502 1502 1502 1501 1501 1500 1499 1498 1498 1498 1497 1497 1496 1496 1495 1494 1493 1492 1491
1496 1496 1497 1497 1498 1498 1498 1498 1498 1498 1498 1498 1499 1499 1498 1498 1498 1498 1498 1498 1498 1498 1499 1499 1499 1498 1498 1498 1497 1496 1496 1495 1494 1494 1493 1493 1492 1492 1491 1490 1488 1487 1487
1494 1494 1495 1495 1496 1496 1496 1495 1495 1495 1496 1496 1496 1496 1495 1495 1495 1495 1495 1495 1495 1495 1495 1495 1495 1495 1494 1494 1493 1493 1492 1491 1490 1490 1489 1488 1488 1487 1487 1486 1485 1484 1483
1491 1492 1492 1493 1493 1493 1493 1493 1492 1493 1493 1493 1492 1492 1492 1492 1492 1492 1492 1492 1491 1491 1491 1491 1491 1491 1490 1490 1489 1489 1489 1488 1487 1486 1485 1484 1484 1483 1482 1481 1480 1480 1479
1488 1489 1489 1490 1490 1490 1490 1490 1490 1490 1489 1489 1489 1489 1489 1488 1488 1488 1488 1488 1488 1488 1487 1487 1487 1486 1486 1486 1486 1485 1484 1484 1483 1482 1481 1480 1479 1478 1477 1477 1476 1475 1474
1486 1486 1487 1487 1487 1487 1487 1487 1487 1487 1486 1486 1486 1486 1485 1485 1485 1485 1485 1485 1484 1484 1483 1483 1482 1482 1482 1482 1481 1481 1480 1479 1479 1478 1477 1476 1475 1474 1473 1472 1471 1470 1470
1483 1483 1484 1484 1484 1484 1484 1484 1484 1484 1483 1483 1483 1482 1482 1482 1482 1482 1482 1481 1481 1480 1480 1479 1479 1478 1477 1477 1477 1477 1476 1475 1474 1473 1472 1471 1470 1468 1467 1467 1466 1465 1465
1480 1480 1480 1481 1481 1481 1481 1481 1481 1480 1480 1480 1479 1479 1479 1478 1478 1478 1478 1477 1477 1477 1477 1476 1476 1475 1475 1474 1473 1473 1472 1471 1470 1469 1467 1466 1465 1464 1463 1462 1461 1461 1460